#timestamp,LO_Frequency,Hit 
1500894015.5,286046995.3,N
1500894035.3,286046995.2,N
1500894055.2,286046999.3,N
1500894075.9,286046999.0,N
1500894095.7,286046998.6,N
1500894115.5,286046995.0,N
1500894135.4,286046998.0,N
1500894155.2,286046994.9,N
1500894175.0,286046998.3,N
1500894175.9,286046998.3,N
1500894195.8,286047001.1,N
1500894215.6,286046997.5,N
1500894235.4,286046995.3,N
1500894255.3,286046995.4,N
1500894275.1,286046997.6,N
1500894276.0,286046997.6,N
1500894295.8,286046998.2,N
1500894315.7,286046998.0,N
1500894335.5,286046996.9,N
1500894355.3,286046996.2,N
1500894375.1,286046993.3,N
1500894395.9,286046996.5,N
1500894415.7,286046994.9,N
1500894435.5,286046993.6,N
1500894455.4,286046996.2,N
1500894475.2,286046998.9,N
1500894495.0,286046998.5,N
1500894495.9,286046998.5,N
1500894515.8,286047001.9,N
1500894535.6,286047000.1,N
1500894555.4,286047002.6,N
1500894575.2,286047005.5,N
1500894595.1,286047007.3,N
1500894596.0,286047007.3,N
1500894615.8,286047002.1,N
1500894635.6,286047000.0,N
1500894655.5,286046995.3,N
1500894675.3,286046999.3,N
1500894695.1,286047000.7,N
1500894715.9,286047000.6,N
1500894735.7,286047000.7,N
1500894755.5,286046997.5,N
1500894775.4,286046994.7,N
1500894795.2,286046992.8,N
1500894815.0,286046993.0,N
1500894815.9,286046993.0,N
1500894835.7,286046990.1,N
1500894855.6,286046992.4,N
1500894875.4,286046993.4,N
1500894895.2,286046993.1,N
1500894915.1,286046993.2,N
1500894916.0,286046993.2,N
1500894935.8,286046990.4,N
1500894955.6,286046990.4,N
1500894975.5,286046991.7,N
1500894995.3,286046990.1,N
1500895015.1,286046988.5,N
1500895035.9,286046989.8,N
1500895055.7,286046987.4,N
1500895075.5,286046988.7,N
1500895095.3,286046989.5,N
1500895115.2,286046991.6,N
1500895135.0,286046990.4,N
1500895135.9,286046990.4,N
1500895155.7,286046992.8,N
1500895175.6,286046991.0,N
1500895195.4,286046988.6,N
1500895215.2,286046991.1,N
1500895235.1,286046993.8,N
1500895236.0,286046993.8,N
1500895255.8,286046993.5,N
1500895275.6,286046996.3,N
1500895295.5,286046994.1,N
1500895315.3,286046994.7,N
1500895335.1,286046990.1,N
1500895355.8,286046994.8,N
1500895375.7,286046992.9,N
1500895395.5,286046993.1,N
1500895415.3,286046992.8,N
1500895435.2,286046991.5,N
1500895455.9,286046988.7,N
1500895475.7,286046994.5,N
1500895495.6,286046993.9,N
1500895515.4,286046992.9,N
1500895535.2,286046992.8,N
1500895555.1,286046990.6,N
1500895556.0,286046990.6,N
1500895575.8,286046993.1,N
1500895595.6,286046990.3,N
1500895615.4,286046996.4,N
1500895635.3,286046991.7,N
1500895655.1,286046993.6,N
1500895675.8,286046992.3,N
1500895695.7,286046992.4,N
1500895715.5,286046992.7,N
1500895735.3,286046990.8,N
1500895755.2,286046989.3,N
1500895775.9,286046988.5,N
1500895795.7,286046989.4,N
1500895815.5,286046987.4,N
1500895835.4,286046988.1,N
1500895855.2,286046988.0,N
1500895875.0,286046988.3,N
1500895875.9,286046988.3,N
1500895895.8,286046987.9,N
1500895915.6,286046987.2,N
1500895935.4,286046987.5,N
1500895955.3,286046988.4,N
1500895975.1,286046988.3,N
1500895976.0,286046988.3,N
1500895995.8,286046986.9,N
1500896015.7,286046988.2,N
1500896035.5,286046988.2,N
1500896055.3,286046989.9,N
1500896075.2,286046987.2,N
1500896095.9,286046991.1,N
1500896115.7,286046991.1,N
1500896135.5,286046992.5,N
1500896155.4,286046990.2,N
1500896175.2,286046989.2,N
1500896195.0,286046991.1,N
1500896195.9,286046991.1,N
1500896215.8,286046993.4,N
1500896235.6,286046996.2,N
1500896255.4,286046997.7,N
1500896275.3,286046992.1,N
1500896295.1,286046991.9,N
1500896296.0,286046991.9,N
1500896315.8,286046991.8,N
1500896335.7,286046992.5,N
1500896355.5,286046996.4,N
1500896375.3,286046994.5,N
1500896395.1,286046994.5,N
1500896415.6,286046994.4,N
1500896435.4,286046992.0,N
1500896455.2,286046992.7,N
1500896475.1,286046990.2,Y
1500896476.0,286046990.2,Y
1500896495.8,286047007.1,N
1500896515.7,286047005.0,N
1500896535.5,286047004.9,N
1500896555.3,286047003.3,N
1500896575.1,286047005.8,N
1500896595.9,286047007.1,N
1500896615.7,286047004.6,N
1500896635.5,286047005.2,N
1500896655.4,286047007.3,N
1500896675.2,286047007.6,N
1500896695.0,286047007.5,N
1500896695.9,286047007.5,N
1500896715.8,286047005.8,N
1500896735.6,286047003.4,N
1500896755.4,286047003.4,N
1500896775.3,286047003.6,N
1500896795.1,286047004.6,N
1500896796.0,286047004.6,N
1500896815.8,286047005.0,N
1500896835.7,286047007.5,N
1500896855.5,286047005.2,N
1500896875.3,286047005.4,N
1500896895.2,286047003.2,N
1500896915.9,286047003.7,N
1500896935.7,286047003.3,N
1500896955.6,286047005.3,N
1500896975.4,286047009.1,N
1500896995.2,286047005.3,N
1500897015.0,286047003.0,N
1500897015.9,286047003.0,N
1500897035.8,286047006.7,N
1500897055.6,286047007.2,N
1500897075.4,286047005.6,N
1500897095.3,286047004.0,N
1500897115.1,286047001.5,N
1500897116.0,286047001.5,N
1500897135.8,286047002.1,N
1500897155.7,286047004.1,N
1500897175.5,286047003.3,N
1500897195.3,286047005.7,N
1500897215.2,286047003.5,N
1500897235.9,286047003.7,N
1500897255.7,286047004.0,N
1500897275.5,286047004.0,N
1500897295.4,286047006.0,N
1500897315.2,286047003.4,N
1500897335.0,286047006.6,N
1500897335.9,286047006.6,N
1500897355.8,286047008.4,N
1500897375.6,286047007.4,N
1500897395.4,286047005.1,N
1500897415.3,286047005.8,N
1500897435.1,286047006.0,N
1500897436.0,286047006.0,N
1500897455.8,286047001.7,N
1500897475.7,286047005.6,N
1500897495.5,286047005.3,N
1500897515.3,286047002.9,N
1500897535.1,286047005.8,N
1500897555.9,286047003.3,N
1500897575.7,286047003.9,N
1500897595.5,286047002.7,N
